Regional Weather Roundup
Issued by NWS

Home | Current Version | Previous Version | Text Only | Print | Product List | Glossary Off
Versions: 1 2 3 4 5 6 7 8 9 10 11 12 13 14 15 16 17 18 19 20 21 22 23 24 25 26 27 28 29 30 31 32 33 34 35 36 37 38 39 40 41 42 43 44 45 46 47 48 49 50

706
ASUS45 KBOU 110407
RWRCO

WEATHER ROUNDUP FOR COLORADO
NATIONAL WEATHER SERVICE DENVER/BOULDER CO
900 PM MST SAT DEC 10 2016

NOTE: "FAIR" INDICATES FEW OR NO CLOUDS BELOW 12000 FEET WITH NO
SIGNIFICANT WEATHER AND/OR OBSTRUCTIONS TO VISIBILITY.

COZ001>005-013-030-031-110500-
...NORTHWEST COLORADO...

CITY           SKY/WX    TMP DP  RH WIND       PRES   REMARKS
CRAIG          LGT SNOW  36  29  75 NW6       29.83S
HAYDEN         CLOUDY    36  27  69 NW6       29.81F
MEEKER         CLOUDY    41  27  57 W10       29.82F
MOUNT WERNER   NOT AVBL
STEAMBOAT SPGS CLOUDY    33  32  97 NE3       29.81F
WALDEN           N/A     32  28  86 S5        29.81F WCI  27
$$

COZ006>008-011-110500-
...WEST CENTRAL VALLEYS...

CITY           SKY/WX    TMP DP  RH WIND       PRES   REMARKS
GRAND JUNCTION FAIR      31  25  78 E5        29.89F WCI  26
MONTROSE       CLOUDY    35  27  72 N3        29.95F
EAGLE          CLOUDY    33  32  96 NE6       29.88F WCI  28
RIFLE          CLOUDY    31  26  82 W3        29.90F
DELTA          NOT AVBL
NUCLA          FAIR      43  28  56 SE6       30.00S
$$

COZ017>023-064>068-110500-
...SOUTHWEST COLORADO...

CITY           SKY/WX    TMP DP  RH WIND       PRES   REMARKS
DURANGO        FAIR      28  22  78 CALM      30.04F
CORTEZ         FAIR      29  25  85 E3        30.03F
PAGOSA SPRINGS FAIR      31  23  74 CALM      30.07S
TELLURIDE      CLOUDY    37  22  54 CALM      30.06S
WOLF CREEK PAS FAIR      21  21 100 S21G32    30.14S WCI   6
$$

COZ009-010-012-014-032>034-037-058>063-110500-
...CENTRAL COLORADO...

CITY           SKY/WX    TMP DP  RH WIND       PRES   REMARKS
ASPEN          CLOUDY    33  32  96 CALM      29.89F
BUENA VISTA    FAIR      39  27  62 W14G21    29.87F
COPPER MTN     NOT AVBL
BERTHOUD PASS  LGT SNOW  21   9  58 MISG      29.90F
COTTONWOOD PAS CLOUDY    36  27  69 W24G40    29.92F
GUNNISON       CLOUDY    28  23  81 W3        29.98F
KREMMLING      FAIR      41  34  75 W13G18    29.84F
LEADVILLE      CLOUDY    28  26  92 SE3       29.91F
MONARCH PASS   CLOUDY    23  21  93 W33G39    30.11F WCI   5
SALIDA         FAIR      44  25  47 SW8       29.98F
SUNLIGHT       CLOUDY    27  23  86 SW22G37   29.93F WCI  12
WILKERSON PASS MOCLDY    27  21  80 SW16G23   29.95F WCI  14
$$

COZ069>075-110500-
...SAN LUIS VALLEY/SANGRE DE CRISTO MOUNTAINS...

CITY           SKY/WX    TMP DP  RH WIND       PRES   REMARKS
ALAMOSA        FAIR      34  20  56 SW9       29.97S WCI  27
LA VETA PASS   FAIR      32  19  59 N28G53    29.94F WCI  18
SAGUACHE       FAIR      25  16  68 N6        29.98F WCI  18
$$

COZ035-036-038>040-110500-
...NORTHERN COLORADO FRONT RANGE...

CITY           SKY/WX    TMP DP  RH WIND       PRES   REMARKS
DENVER INTL AP MOCLDY    40  27  59 SE10      29.70F
DMNS CITY PARK   N/A     49  27  43 SE12      29.69F
AURORA         MOCLDY    43  28  55 S8        29.71F
FRONT RANGE AP MOCLDY    39  28  65 SE5       29.71F
ERIE MUNI ARPT FAIR      51  28  40 W13       29.69F
BOULDER MUN AP FAIR      54  28  37 CALM      29.67F
CENTENNIAL     MOCLDY    44  28  53 S5        29.71F
BROOMFIELD     MOCLDY    48  28  46 N9        29.70F
FORT COLLINS   FAIR      30  25  80 S3        29.70S
LONGMONT       NOT AVBL
$$

COZ041-046-047-076>085-087-088-110500-
...PIKES PEAK/PALMER DIVIDE AND SOUTHERN FOOTHILLS...

CITY           SKY/WX    TMP DP  RH WIND       PRES   REMARKS
COLO. SPRINGS  MOCLDY    52  22  30 VRB3      29.74F
A. F. ACADEMY  FAIR      48  22  36 NE14      29.74S
SCHRIEVER AFB  NOT AVBL
ELLICOTT       FAIR     N/A N/A N/A N7        29.72F
FALCON         FAIR      46  22  40 E7        29.77F
FORT CARSON    FAIR      53  22  29 S12       29.70F
LIMON          FAIR      31  22  69 NW7       29.72F WCI  24
MONUMENT HILL  FAIR      43  27  52 SW12      29.78F
TRINIDAD       FAIR      47  11  23 NE7       29.77S
$$

COZ042>045-048>051-090-091-110500-
...NORTHEAST COLORADO...

CITY           SKY/WX    TMP DP  RH WIND       PRES   REMARKS
GREELEY ARPT   FAIR      22  20  92 NE6       29.71F WCI  14
AKRON          FAIR      37  27  67 W12       29.70S
BURLINGTON     FAIR      28  19  69 SW8       29.70F WCI  20
WRAY           NOT AVBL
STERLING       FAIR      28  25  86 SW10      29.68S WCI  19
HOLYOKE        FAIR      34  30  86 SW6       29.68F WCI  29
FORT MORGAN    FAIR      30  23  74 W5        29.70F WCI  25
$$

COZ086-089-092>099-110500-
...SOUTHEAST COLORADO...

CITY           SKY/WX    TMP DP  RH WIND       PRES   REMARKS
PUEBLO         FAIR      51  20  29 NW15      29.69F
LA JUNTA       FAIR      38  21  50 S6        29.70S
LAMAR          FAIR      25  19  78 SW5       29.67S WCI  19
SPRINGFIELD      N/A     44  17  33 SW13      29.70F
$$




USA.gov is the U.S. government's official web portal to all federal, state and local government web resources and services.